| time (UTC) | temp F | wind direction | speed MPH | gust MPH | rain 1hr in | rain 24hr in | rain mn in | humidity % | barometer mb |
| 20260506164533 | 56 | 249 | 5.0 | 12.0 | 0.00 | 0.00 | 0.00 | 37 | 1012.7 |
| 20260506163033 | 55 | 187 | 5.0 | 14.0 | 0.00 | 0.00 | 0.00 | 37 | 1012.7 |
| 20260506161530 | 55 | 263 | 7.0 | 15.0 | 0.00 | 0.00 | 0.00 | 36 | 1012.7 |
| 20260506160034 | 55 | 265 | 4.0 | 12.0 | 0.00 | 0.00 | 0.00 | 40 | 1012.8 |
| 20260506154533 | 56 | 247 | 2.0 | 10.0 | 0.00 | 0.00 | 0.00 | 39 | 1012.8 |
| 20260506153029 | 55 | 197 | 3.0 | 12.0 | 0.00 | 0.00 | 0.00 | 38 | 1012.9 |
| 20260506151532 | 55 | 223 | 4.0 | 15.0 | 0.00 | 0.00 | 0.00 | 44 | 1012.9 |
| 20260506150031 | 54 | 0 | 3.0 | 12.0 | 0.00 | 0.00 | 0.00 | 42 | 1012.9 |
| 20260506144529 | 54 | 229 | 2.0 | 10.0 | 0.00 | 0.00 | 0.00 | 41 | 1012.9 |
| 20260506143029 | 55 | 202 | 2.0 | 10.0 | 0.00 | 0.00 | 0.00 | 44 | 1013.0 |
| 20260506141532 | 54 | 142 | 2.0 | 9.0 | 0.00 | 0.00 | 0.00 | 50 | 1012.9 |
| 20260506140035 | 53 | 211 | 1.0 | 8.0 | 0.00 | 0.00 | 0.00 | 44 | 1013.1 |
| 20260506134532 | 52 | 323 | 3.0 | 7.0 | 0.00 | 0.00 | 0.00 | 52 | 1012.8 |
| 20260506133038 | 50 | 183 | 3.0 | 9.0 | 0.00 | 0.00 | 0.00 | 52 | 1012.7 |
| 20260506131530 | 49 | 163 | 0.0 | 7.0 | 0.00 | 0.00 | 0.00 | 55 | 1012.6 |
| 20260506130030 | 46 | 150 | 1.0 | 6.0 | 0.00 | 0.00 | 0.00 | 59 | 1012.5 |
| 20260506124530 | 43 | 0 | 0.0 | 5.0 | 0.00 | 0.00 | 0.00 | 67 | 1012.4 |
| 20260506123032 | 39 | 0 | 0.0 | 0.0 | 0.00 | 0.00 | 0.00 | 89 | 1012.2 |
| 20260506121530 | 36 | 0 | 0.0 | 0.0 | 0.00 | 0.00 | 0.00 | 91 | 1012.0 |
| 20260506120028 | 34 | 0 | 0.0 | 0.0 | 0.00 | 0.00 | 0.00 | 90 | 1012.0 |
| 20260506114536 | 32 | 0 | 0.0 | 0.0 | 0.00 | 0.00 | 0.00 | 88 | 1011.9 |
| 20260506113030 | 31 | 0 | 0.0 | 0.0 | 0.00 | 0.00 | 0.00 | 85 | 1011.9 |
| 20260506111532 | 31 | 0 | 0.0 | 0.0 | 0.00 | 0.00 | 0.00 | 84 | 1011.9 |
| 20260506110039 | 32 | 0 | 0.0 | 0.0 | 0.00 | 0.00 | 0.00 | 83 | 1011.7 |
| 20260506104554 | 32 | 0 | 0.0 | 0.0 | 0.00 | 0.00 | 0.00 | 83 | 1011.2 |
| 20260506103028 | 32 | 0 | 0.0 | 0.0 | 0.00 | 0.00 | 0.00 | 83 | 1011.0 |
| 20260506101533 | 33 | 0 | 0.0 | 0.0 | 0.00 | 0.00 | 0.00 | 82 | 1010.9 |
| 20260506100040 | 33 | 0 | 0.0 | 0.0 | 0.00 | 0.00 | 0.00 | 82 | 1011.0 |
| 20260506094534 | 33 | 0 | 0.0 | 0.0 | 0.00 | 0.00 | 0.00 | 81 | 1011.1 |
| 20260506093035 | 33 | 0 | 0.0 | 0.0 | 0.00 | 0.00 | 0.00 | 81 | 1011.1 |
| 20260506091531 | 34 | 0 | 0.0 | 0.0 | 0.00 | 0.00 | 0.00 | 80 | 1011.2 |
| 20260506090042 | 34 | 0 | 0.0 | 0.0 | 0.00 | 0.00 | 0.00 | 80 | 1011.3 |
| 20260506084533 | 35 | 0 | 0.0 | 0.0 | 0.00 | 0.00 | 0.00 | 79 | 1011.2 |
| 20260506083040 | 35 | 0 | 0.0 | 0.0 | 0.00 | 0.00 | 0.00 | 78 | 1011.0 |
| 20260506081531 | 36 | 0 | 0.0 | 0.0 | 0.00 | 0.00 | 0.00 | 77 | 1010.8 |
| 20260506073030 | 39 | 0 | 0.0 | 0.0 | 0.00 | 0.00 | 0.00 | 72 | 1010.6 |
| 20260506071534 | 40 | 0 | 0.0 | 0.0 | 0.00 | 0.00 | 0.00 | 70 | 1010.6 |
| 20260506061531 | 44 | 5 | 0.0 | 4.0 | 0.00 | 0.00 | 0.00 | 60 | 1010.7 |
| 20260506044535 | 47 | 329 | 2.0 | 6.0 | 0.00 | 0.00 | 0.00 | 57 | 1010.6 |
| 20260506043034 | 47 | 342 | 3.0 | 7.0 | 0.00 | 0.00 | 0.00 | 58 | 1010.5 |
| 20260506041532 | 47 | 11 | 3.0 | 7.0 | 0.00 | 0.00 | 0.00 | 57 | 1010.3 |
| 20260506040045 | 46 | 352 | 5.0 | 11.0 | 0.00 | 0.00 | 0.00 | 54 | 1010.4 |
| 20260506034533 | 47 | 0 | 0.0 | 2.0 | 0.00 | 0.00 | 0.00 | 56 | 1009.7 |
| 20260506033032 | 48 | 19 | 0.0 | 3.0 | 0.00 | 0.00 | 0.00 | 54 | 1009.6 |
| 20260506031533 | 49 | 0 | 0.0 | 2.0 | 0.00 | 0.00 | 0.00 | 51 | 1009.8 |
| 20260506030031 | 49 | 14 | 2.0 | 5.0 | 0.00 | 0.00 | 0.00 | 48 | 1009.8 |
| 20260506024541 | 48 | 360 | 1.0 | 9.0 | 0.00 | 0.00 | 0.00 | 49 | 1009.5 |
| 20260506023032 | 47 | 344 | 2.0 | 6.0 | 0.00 | 0.00 | 0.00 | 57 | 1009.5 |
| 20260506021546 | 47 | 0 | 0.0 | 2.0 | 0.00 | 0.00 | 0.00 | 60 | 1009.2 |
| 20260506020030 | 48 | 0 | 0.0 | 0.0 | 0.00 | 0.00 | 0.00 | 58 | 1008.8 |
| 20260506014530 | 48 | 0 | 0.0 | 0.0 | 0.00 | 0.00 | 0.00 | 54 | 1008.4 |
| 20260506013032 | 49 | 0 | 0.0 | 2.0 | 0.00 | 0.00 | 0.00 | 53 | 1008.3 |
| 20260506011531 | 51 | 0 | 0.0 | 1.0 | 0.00 | 0.00 | 0.00 | 49 | 1007.9 |
| 20260506010044 | 52 | 0 | 0.0 | 1.0 | 0.00 | 0.00 | 0.00 | 47 | 1007.7 |
| 20260506004532 | 53 | 0 | 0.0 | 2.0 | 0.00 | 0.00 | 0.00 | 47 | 1007.7 |
| 20260506003033 | 54 | 0 | 0.0 | 3.0 | 0.00 | 0.00 | 0.00 | 42 | 1007.7 |
| 20260506001530 | 54 | 307 | 2.0 | 9.0 | 0.00 | 0.00 | 0.00 | 38 | 1007.6 |
| 20260506000034 | 55 | 15 | 2.0 | 9.0 | 0.00 | 0.00 | 0.00 | 37 | 1007.6 |
| 20260505234552 | 55 | 329 | 3.0 | 11.0 | 0.00 | 0.00 | 0.00 | 37 | 1007.6 |
| 20260505233034 | 56 | 333 | 3.0 | 7.0 | 0.00 | 0.00 | 0.00 | 37 | 1007.5 |
| 20260505231533 | 56 | 313 | 1.0 | 8.0 | 0.00 | 0.00 | 0.00 | 37 | 1007.6 |
| 20260505230030 | 56 | 261 | 2.0 | 11.0 | 0.00 | 0.00 | 0.00 | 38 | 1007.8 |
| 20260505224533 | 57 | 300 | 2.0 | 8.0 | 0.00 | 0.00 | 0.00 | 36 | 1007.8 |
| 20260505223029 | 57 | 273 | 4.0 | 12.0 | 0.00 | 0.00 | 0.00 | 36 | 1007.8 |
| 20260505221530 | 57 | 288 | 2.0 | 12.0 | 0.00 | 0.00 | 0.00 | 35 | 1007.7 |
| 20260505220032 | 57 | 289 | 3.0 | 14.0 | 0.00 | 0.00 | 0.00 | 34 | 1008.0 |
| 20260505214542 | 58 | 292 | 1.0 | 15.0 | 0.00 | 0.00 | 0.00 | 33 | 1007.8 |
| 20260505213030 | 58 | 217 | 5.0 | 11.0 | 0.00 | 0.00 | 0.00 | 33 | 1007.7 |
| 20260505211540 | 58 | 258 | 4.0 | 15.0 | 0.00 | 0.00 | 0.00 | 32 | 1007.9 |
| 20260505210031 | 58 | 217 | 4.0 | 12.0 | 0.00 | 0.00 | 0.00 | 33 | 1007.9 |
| 20260505204533 | 58 | 298 | 4.0 | 13.0 | 0.00 | 0.00 | 0.00 | 37 | 1007.9 |
| 20260505203046 | 58 | 334 | 4.0 | 16.0 | 0.00 | 0.00 | 0.00 | 30 | 1008.0 |
| 20260505201531 | 59 | 325 | 7.0 | 21.0 | 0.00 | 0.00 | 0.00 | 31 | 1008.0 |
| 20260505200031 | 59 | 328 | 3.0 | 14.0 | 0.00 | 0.00 | 0.00 | 32 | 1008.0 |
| 20260505194529 | 59 | 304 | 2.0 | 21.0 | 0.00 | 0.00 | 0.00 | 30 | 1008.0 |
| 20260505193029 | 59 | 315 | 5.0 | 13.0 | 0.00 | 0.00 | 0.00 | 32 | 1008.3 |
| 20260505191530 | 59 | 305 | 6.0 | 15.0 | 0.00 | 0.00 | 0.00 | 33 | 1008.3 |
| 20260505190034 | 59 | 311 | 4.0 | 16.0 | 0.00 | 0.00 | 0.00 | 35 | 1008.2 |
| 20260505184543 | 59 | 294 | 4.0 | 17.0 | 0.00 | 0.00 | 0.00 | 33 | 1008.0 |
| 20260505183039 | 60 | 227 | 4.0 | 20.0 | 0.00 | 0.00 | 0.00 | 36 | 1008.0 |
| 20260505181531 | 59 | 304 | 6.0 | 13.0 | 0.00 | 0.00 | 0.00 | 36 | 1007.8 |
| 20260505180032 | 58 | 222 | 3.0 | 13.0 | 0.00 | 0.00 | 0.00 | 38 | 1007.7 |
| 20260505174530 | 57 | 277 | 10.0 | 20.0 | 0.00 | 0.00 | 0.00 | 37 | 1007.7 |
| 20260505173031 | 57 | 227 | 3.0 | 13.0 | 0.00 | 0.00 | 0.00 | 38 | 1007.6 |
| 20260505171530 | 57 | 0 | 2.0 | 13.0 | 0.00 | 0.00 | 0.00 | 36 | 1007.9 |
| 20260505170036 | 56 | 258 | 4.0 | 12.0 | 0.00 | 0.00 | 0.00 | 37 | 1008.0 |